• In Hungary
  • List of Countries
  • For 7 days
  • Water Temperature
  • Satellite Maps
  • Weather Map
  • News
  • Weather Widgets
  • user-avatar
    Login

    Hourly Weather Anuradhapura

    Today, 27 May, Sunday

    Time Temperature Precipitation Wind Pressure Humidity
    00:00 +27°C° 0 mm 4 mps 747 mmHg 88%
    01:00 +27°C° 0 mm 4 mps 746 mmHg 88%
    02:00 +27°C° 0 mm 4 mps 746 mmHg 88%
    03:00 +27°C° 0 mm 4 mps 746 mmHg 88%
    04:00 +27°C° 0 mm 4 mps 746 mmHg 88%
    05:00 +27°C° 0 mm 3 mps 746 mmHg 86%
    06:00 +28°C° 0 mm 4 mps 746 mmHg 84%
    07:00 +29°C° 0 mm 5 mps 747 mmHg 81%
    08:00 +29°C° 0 mm 6 mps 747 mmHg 79%
    09:00 +30°C° 0.2 mm 6 mps 747 mmHg 76%
    10:00 +32°C° 0.2 mm 6 mps 747 mmHg 73%
    11:00 +34°C° 0 mm 5 mps 747 mmHg 69%
    12:00 +34°C° 0.4 mm 6 mps 746 mmHg 70%
    13:00 +33°C° 0.4 mm 6 mps 746 mmHg 72%
    14:00 +33°C° 0.4 mm 6 mps 745 mmHg 74%
    15:00 +32°C° 0.1 mm 6 mps 745 mmHg 77%
    16:00 +30°C° 0.1 mm 6 mps 746 mmHg 79%
    17:00 +29°C° 0.1 mm 5 mps 746 mmHg 82%
    18:00 +29°C° 0 mm 5 mps 746 mmHg 83%
    19:00 +29°C° 0 mm 5 mps 747 mmHg 84%
    20:00 +28°C° 0 mm 5 mps 747 mmHg 85%
    21:00 +28°C° 0 mm 5 mps 747 mmHg 85%
    22:00 +28°C° 0 mm 5 mps 747 mmHg 85%
    23:00 +28°C° 0 mm 5 mps 747 mmHg 85%

    Tomorrow, 28 May, Monday

    Time Temperature Precipitation Wind Pressure Humidity
    00:00 +28°C° 0.1 mm 5 mps 747 mmHg 85%
    01:00 +28°C° 0.1 mm 5 mps 747 mmHg 85%
    02:00 +28°C° 0.1 mm 5 mps 746 mmHg 86%
    03:00 +28°C° 0.2 mm 5 mps 746 mmHg 86%
    04:00 +28°C° 0.2 mm 5 mps 746 mmHg 85%
    05:00 +28°C° 0.2 mm 5 mps 746 mmHg 85%
    06:00 +28°C° 0.1 mm 6 mps 747 mmHg 83%
    07:00 +29°C° 0.1 mm 6 mps 747 mmHg 80%
    08:00 +30°C° 0.1 mm 7 mps 748 mmHg 77%
    09:00 +32°C° 0.2 mm 7 mps 748 mmHg 74%
    10:00 +32°C° 0.2 mm 8 mps 748 mmHg 71%
    11:00 +33°C° 0.2 mm 8 mps 747 mmHg 69%
    12:00 +33°C° 0.1 mm 8 mps 747 mmHg 68%
    13:00 +33°C° 0.1 mm 8 mps 746 mmHg 67%
    14:00 +33°C° 0.1 mm 8 mps 746 mmHg 67%
    15:00 +32°C° 0.1 mm 8 mps 746 mmHg 70%
    16:00 +32°C° 0.1 mm 7 mps 746 mmHg 74%
    17:00 +30°C° 0.1 mm 7 mps 746 mmHg 77%
    18:00 +29°C° 0 mm 6 mps 746 mmHg 78%
    19:00 +29°C° 0 mm 6 mps 746 mmHg 79%
    20:00 +29°C° 0 mm 6 mps 747 mmHg 81%
    21:00 +29°C° 0 mm 6 mps 747 mmHg 81%
    22:00 +29°C° 0 mm 6 mps 747 mmHg 81%
    23:00 +29°C° 0 mm 6 mps 747 mmHg 81%

    Day after tomorrow, 29 May, Tuesday

    Time Temperature Precipitation Wind Pressure Humidity
    00:00 +28°C° 0 mm 6 mps 746 mmHg 81%
    01:00 +28°C° 0 mm 6 mps 746 mmHg 82%
    02:00 +28°C° 0 mm 6 mps 745 mmHg 82%
    03:00 +28°C° 0 mm 6 mps 745 mmHg 82%
    04:00 +28°C° 0 mm 6 mps 746 mmHg 82%
    05:00 +28°C° 0 mm 6 mps 746 mmHg 82%
    06:00 +29°C° 0.1 mm 6 mps 746 mmHg 80%
    07:00 +30°C° 0.1 mm 7 mps 747 mmHg 78%
    08:00 +31°C° 0.1 mm 8 mps 747 mmHg 76%
    09:00 +32°C° 0 mm 8 mps 747 mmHg 72%
    10:00 +33°C° 0 mm 8 mps 747 mmHg 69%
    11:00 +34°C° 0 mm 8 mps 746 mmHg 66%
    12:00 +34°C° 0 mm 8 mps 746 mmHg 66%
    13:00 +33°C° 0 mm 8 mps 745 mmHg 66%
    14:00 +33°C° 0 mm 8 mps 745 mmHg 66%
    15:00 +33°C° 0 mm 8 mps 745 mmHg 70%
    16:00 +32°C° 0 mm 7 mps 745 mmHg 73%
    17:00 +30°C° 0 mm 6 mps 745 mmHg 77%
    18:00 +29°C° 0 mm 6 mps 746 mmHg 78%
    19:00 +29°C° 0 mm 6 mps 746 mmHg 78%
    20:00 +29°C° 0 mm 6 mps 747 mmHg 79%
    21:00 +29°C° 0 mm 6 mps 747 mmHg 79%
    22:00 +29°C° 0 mm 7 mps 747 mmHg 80%
    23:00 +29°C° 0 mm 7 mps 747 mmHg 80%

    30 May, Wednesday

    Time Temperature Precipitation Wind Pressure Humidity
    00:00 +29°C° 0 mm 7 mps 747 mmHg 80%
    01:00 +29°C° 0 mm 7 mps 746 mmHg 80%
    02:00 +29°C° 0 mm 7 mps 745 mmHg 80%
    03:00 +29°C° 0 mm 6 mps 746 mmHg 80%
    04:00 +29°C° 0 mm 6 mps 746 mmHg 80%
    05:00 +29°C° 0 mm 6 mps 746 mmHg 80%
    06:00 +29°C° 0 mm 7 mps 746 mmHg 79%
    07:00 +30°C° 0 mm 7 mps 746 mmHg 77%
    08:00 +30°C° 0 mm 7 mps 747 mmHg 76%
    09:00 +32°C° 0 mm 7 mps 747 mmHg 73%
    10:00 +33°C° 0 mm 8 mps 747 mmHg 71%
    11:00 +33°C° 0 mm 8 mps 747 mmHg 68%
    12:00 +33°C° 0 mm 8 mps 746 mmHg 68%
    13:00 +33°C° 0 mm 8 mps 746 mmHg 68%
    14:00 +33°C° 0 mm 8 mps 745 mmHg 68%
    15:00 +32°C° 0 mm 7 mps 745 mmHg 71%
    16:00 +32°C° 0 mm 7 mps 745 mmHg 74%
    17:00 +30°C° 0 mm 6 mps 745 mmHg 77%
    18:00 +30°C° 0 mm 6 mps 746 mmHg 78%
    19:00 +29°C° 0 mm 6 mps 746 mmHg 79%
    20:00 +29°C° 0 mm 6 mps 747 mmHg 80%
    21:00 +29°C° 0 mm 6 mps 747 mmHg 80%
    22:00 +29°C° 0 mm 6 mps 747 mmHg 81%
    23:00 +29°C° 0 mm 6 mps 747 mmHg 82%

    31 May, Thursday

    Time Temperature Precipitation Wind Pressure Humidity
    00:00 +28°C° 0 mm 6 mps 747 mmHg 82%
    01:00 +28°C° 0 mm 6 mps 746 mmHg 83%
    02:00 +28°C° 0 mm 6 mps 746 mmHg 83%
    03:00 +28°C° 0 mm 6 mps 746 mmHg 83%
    04:00 +28°C° 0 mm 5 mps 746 mmHg 83%
    05:00 +28°C° 0 mm 5 mps 746 mmHg 83%
    06:00 +29°C° 0 mm 6 mps 747 mmHg 81%
    07:00 +30°C° 0 mm 6 mps 748 mmHg 79%
    08:00 +30°C° 0 mm 7 mps 748 mmHg 77%
    09:00 +32°C° 0.1 mm 7 mps 748 mmHg 73%
    10:00 +33°C° 0.1 mm 7 mps 748 mmHg 70%
    11:00 +34°C° 0.1 mm 7 mps 748 mmHg 67%
    12:00 +34°C° 0.1 mm 7 mps 747 mmHg 67%
    13:00 +34°C° 0.1 mm 7 mps 746 mmHg 66%
    14:00 +34°C° 0.1 mm 7 mps 746 mmHg 66%
    15:00 +33°C° 0 mm 6 mps 746 mmHg 69%
    16:00 +32°C° 0 mm 6 mps 746 mmHg 73%
    17:00 +30°C° 0 mm 5 mps 746 mmHg 76%
    18:00 +30°C° 0 mm 5 mps 747 mmHg 78%
    19:00 +29°C° 0 mm 5 mps 747 mmHg 80%
    20:00 +29°C° 0 mm 5 mps 748 mmHg 82%
    21:00 +29°C° 0 mm 5 mps 748 mmHg 82%
    22:00 +28°C° 0 mm 5 mps 748 mmHg 82%
    23:00 +28°C° 0 mm 5 mps 747 mmHg 83%

    1 June, Friday

    Time Temperature Precipitation Wind Pressure Humidity
    00:00 +28°C° 0 mm 5 mps 747 mmHg 83%
    01:00 +28°C° 0 mm 5 mps 746 mmHg 83%
    02:00 +28°C° 0 mm 5 mps 746 mmHg 84%
    03:00 +28°C° 0 mm 5 mps 746 mmHg 84%
    04:00 +28°C° 0 mm 5 mps 746 mmHg 84%
    05:00 +28°C° 0 mm 5 mps 747 mmHg 84%
    06:00 +29°C° 0 mm 5 mps 747 mmHg 82%
    07:00 +29°C° 0 mm 6 mps 748 mmHg 80%
    08:00 +30°C° 0 mm 6 mps 748 mmHg 78%
    09:00 +32°C° 0.1 mm 6 mps 748 mmHg 75%
    10:00 +33°C° 0.1 mm 6 mps 748 mmHg 71%
    11:00 +34°C° 0.1 mm 6 mps 748 mmHg 67%
    12:00 +34°C° 0.2 mm 6 mps 747 mmHg 67%
    13:00 +34°C° 0.2 mm 6 mps 747 mmHg 66%
    14:00 +34°C° 0.2 mm 7 mps 746 mmHg 66%
    15:00 +33°C° 0 mm 6 mps 746 mmHg 69%
    16:00 +32°C° 0 mm 5 mps 746 mmHg 73%
    17:00 +30°C° 0 mm 5 mps 746 mmHg 77%
    18:00 +30°C° 0 mm 5 mps 747 mmHg 79%
    19:00 +29°C° 0 mm 5 mps 747 mmHg 80%
    20:00 +28°C° 0 mm 5 mps 748 mmHg 82%
    21:00 +28°C° 0 mm 5 mps 748 mmHg 82%
    22:00 +28°C° 0 mm 5 mps 748 mmHg 82%
    23:00 +28°C° 0 mm 5 mps 747 mmHg 82%
    Show more